OBJECT D, 49398

Orbit data source: Space-Track

You're viewing an Uncataloged Satellite

Recently launched and/or uncataloged satellites may have evolving metadata. Metadata may include but not limited to: Owner, Maufacturer, Bus, Motor, and Mission.

OBJECT D, 49398 is a Japanese satellite in SSO that was launched on Tue, 09 Nov 2021 UTC via an EPSILON launch vehicle from the Kagoshima Space Center University Of Tokyo (KSCUT). Unknown objects in Earth's orbit typically refer to objects detected orbiting the Earth but have not yet been identified or cataloged. These objects could be anything from previously untracked satellites, spent rocket stages, debris from satellite collisions, or even natural meteoroids temporarily captured by Earth's gravity.

Loading next visibility...
Identifier
49398, 2021-102D
Orbit
SSO
Country
Flag of JPJP / JPN
Related business
Flag of VNNational Satellite Center, Vietnam Academy of Science and Te (VN)
Manufacturer
VNSC/MEISEI
Mission
Non-operational Civil Com/Tech
Bus & Motor
CUBESAT 3U, Unknown motor
Mass
4 kg wet, 4 kg dry
Launch date (UTC)
2021-11-09 (4 years ago)
Launch vehicle
EPSILON
Launch site
Kagoshima Space Center University Of Tokyo (KSCUT)
Object type
Unknown
Shape & HBR
Box + 1 Ant, 3.5 m
Radar Cross Section
0.281 m², Small (<0.1 m²)

Expand to show TLE details & history
Last TLE update: 12 hours ago

TLE from 12 hours ago
0 OBJECT D
1 49398U 21102D   26095.05926344  .00015282  00000-0  54091-3 0  9994
2 49398  97.3284 138.3136 0010894 103.9511 256.2941 15.29174988242848
Epoch: 2026-04-05T01:25Z
TLE epoch observation values (Epoch: 2026-04-05T01:25:20.361Z)
Latitude
-0.00006°
Longitude
-76.39135°
Altitude
483.16 km
Speed
7.623 km/s
True Right ascension
09h 13m 15s
True Declination
0° 00' 00"
Sunlit
Object was in full shadow at epoch
Visualization orbit readout
Latitude
Unknown
Longitude
Unknown
Altitude
Unknown
Speed
Unknown
Apparent Right ascension
Unknown
Apparent Declination
Unknown
Sunlit
N/A
Visualization observer readout
Local Sidereal Time
19:28:57
Azimuth
Unknown
Elevation
Unknown
Doppler factor
Unknown
Orbital elements
Apogee altitude
482.694 km
Perigee altitude
467.762 km
Semi-major axis
6,853.365 km
Eccentricity
0.00109
Inclination
97.3284°
RAAN
138.3136°
Arg. of periapsis
103.9511°
True anomaly
256.17286°
Mean anomaly
256.2941°
Eccentric anomaly
256.23348°
Mean motion
3.82549 °/min
Orbital period
94.11 mins
BSTAR
0.00054091
Loading maneuver chart data...
Computing Atmospheric mass density...
Loading historical data...
Loading historical data...
Loading historical data...
Loading historical data...
Loading historical data...
Loading historical data...
Loading historical data...

Documentation

Showing up to 5 results
|